• In Uzbekistan
  • List of Countries
  • For 7 days
  • Water Temperature
  • Satellite Maps
  • Weather Map
  • Weather Widgets
  • user-avatar
    Login

    Hourly Weather Aba-el-Baul

    Today, 24 January, Wednesday

    Time Temperature Precipitation Wind Pressure Humidity
    00:00 +17°C° 0 mm 3 mps 757 mmHg 57%
    01:00 +17°C° 0 mm 3 mps 756 mmHg 54%
    02:00 +17°C° 0 mm 3 mps 756 mmHg 52%
    03:00 +17°C° 0 mm 4 mps 756 mmHg 55%
    04:00 +16°C° 0 mm 3 mps 756 mmHg 51%
    05:00 +16°C° 0 mm 3 mps 757 mmHg 47%
    06:00 +16°C° 0 mm 3 mps 757 mmHg 43%
    07:00 +17°C° 0 mm 3 mps 757 mmHg 37%
    08:00 +19°C° 0 mm 3 mps 758 mmHg 31%
    09:00 +20°C° 0 mm 3 mps 758 mmHg 24%
    10:00 +22°C° 0 mm 3 mps 758 mmHg 21%
    11:00 +24°C° 0 mm 3 mps 757 mmHg 17%
    12:00 +26°C° 0 mm 3 mps 757 mmHg 14%
    13:00 +27°C° 0 mm 2 mps 757 mmHg 14%
    14:00 +27°C° 0 mm 2 mps 756 mmHg 14%
    15:00 +28°C° 0 mm 2 mps 756 mmHg 14%
    16:00 +26°C° 0 mm 2 mps 756 mmHg 17%
    17:00 +25°C° 0 mm 3 mps 756 mmHg 21%
    18:00 +22°C° 0 mm 3 mps 756 mmHg 24%
    19:00 +22°C° 0 mm 3 mps 756 mmHg 28%
    20:00 +21°C° 0 mm 3 mps 756 mmHg 31%
    21:00 +20°C° 0 mm 3 mps 757 mmHg 34%
    22:00 +20°C° 0 mm 3 mps 757 mmHg 35%
    23:00 +20°C° 0 mm 3 mps 757 mmHg 36%

    Tomorrow, 25 January, Thursday

    Time Temperature Precipitation Wind Pressure Humidity
    00:00 +19°C° 0 mm 2 mps 756 mmHg 37%
    01:00 +19°C° 0 mm 2 mps 756 mmHg 38%
    02:00 +19°C° 0 mm 2 mps 756 mmHg 39%
    03:00 +18°C° 0 mm 2 mps 756 mmHg 40%
    04:00 +18°C° 0 mm 2 mps 756 mmHg 40%
    05:00 +18°C° 0 mm 2 mps 756 mmHg 39%
    06:00 +17°C° 0 mm 2 mps 757 mmHg 39%
    07:00 +19°C° 0 mm 2 mps 757 mmHg 35%
    08:00 +21°C° 0 mm 2 mps 757 mmHg 31%
    09:00 +24°C° 0 mm 2 mps 758 mmHg 27%
    10:00 +25°C° 0 mm 2 mps 757 mmHg 24%
    11:00 +26°C° 0 mm 2 mps 757 mmHg 22%
    12:00 +28°C° 0 mm 2 mps 757 mmHg 20%
    13:00 +28°C° 0 mm 3 mps 756 mmHg 20%
    14:00 +29°C° 0 mm 3 mps 756 mmHg 20%
    15:00 +29°C° 0 mm 3 mps 755 mmHg 20%
    16:00 +27°C° 0 mm 3 mps 755 mmHg 25%
    17:00 +26°C° 0 mm 4 mps 755 mmHg 29%
    18:00 +23°C° 0 mm 4 mps 756 mmHg 34%
    19:00 +23°C° 0 mm 4 mps 756 mmHg 36%
    20:00 +22°C° 0 mm 4 mps 756 mmHg 39%
    21:00 +22°C° 0 mm 4 mps 756 mmHg 42%
    22:00 +21°C° 0 mm 4 mps 756 mmHg 43%
    23:00 +21°C° 0 mm 3 mps 756 mmHg 45%

    Day after tomorrow, 26 January, Friday

    Time Temperature Precipitation Wind Pressure Humidity
    00:00 +21°C° 0 mm 3 mps 756 mmHg 46%
    01:00 +20°C° 0 mm 3 mps 756 mmHg 48%
    02:00 +20°C° 0 mm 3 mps 755 mmHg 49%
    03:00 +20°C° 0 mm 3 mps 755 mmHg 51%
    04:00 +20°C° 0 mm 3 mps 756 mmHg 52%
    05:00 +19°C° 0 mm 3 mps 756 mmHg 53%
    06:00 +19°C° 0 mm 3 mps 756 mmHg 54%
    07:00 +21°C° 0 mm 3 mps 756 mmHg 48%
    08:00 +22°C° 0 mm 4 mps 757 mmHg 42%
    09:00 +25°C° 0 mm 4 mps 757 mmHg 35%
    10:00 +26°C° 0 mm 4 mps 757 mmHg 30%
    11:00 +28°C° 0 mm 4 mps 756 mmHg 24%
    12:00 +30°C° 0 mm 4 mps 756 mmHg 18%
    13:00 +30°C° 0 mm 4 mps 756 mmHg 17%
    14:00 +31°C° 0 mm 3 mps 755 mmHg 17%
    15:00 +31°C° 0 mm 3 mps 754 mmHg 16%
    16:00 +29°C° 0 mm 3 mps 755 mmHg 20%
    17:00 +28°C° 0 mm 3 mps 755 mmHg 24%
    18:00 +26°C° 0 mm 3 mps 755 mmHg 27%
    19:00 +25°C° 0 mm 4 mps 755 mmHg 30%
    20:00 +23°C° 0 mm 4 mps 755 mmHg 33%
    21:00 +23°C° 0 mm 4 mps 756 mmHg 36%
    22:00 +22°C° 0 mm 4 mps 756 mmHg 38%
    23:00 +22°C° 0 mm 3 mps 755 mmHg 41%

    27 January, Saturday

    Time Temperature Precipitation Wind Pressure Humidity
    00:00 +22°C° 0 mm 3 mps 755 mmHg 43%
    01:00 +21°C° 0 mm 3 mps 755 mmHg 43%
    02:00 +21°C° 0 mm 2 mps 755 mmHg 43%
    03:00 +20°C° 0 mm 2 mps 755 mmHg 44%
    04:00 +20°C° 0 mm 2 mps 755 mmHg 42%
    05:00 +19°C° 0 mm 2 mps 755 mmHg 41%
    06:00 +20°C° 0 mm 1 mps 755 mmHg 39%
    07:00 +20°C° 0 mm 2 mps 756 mmHg 35%
    08:00 +23°C° 0 mm 2 mps 756 mmHg 31%
    09:00 +25°C° 0 mm 2 mps 757 mmHg 27%
    10:00 +26°C° 0 mm 2 mps 756 mmHg 26%
    11:00 +28°C° 0 mm 2 mps 756 mmHg 25%
    12:00 +29°C° 0 mm 3 mps 755 mmHg 23%
    13:00 +29°C° 0 mm 3 mps 755 mmHg 24%
    14:00 +29°C° 0 mm 3 mps 754 mmHg 24%
    15:00 +29°C° 0 mm 3 mps 754 mmHg 24%
    16:00 +28°C° 0 mm 3 mps 754 mmHg 30%
    17:00 +26°C° 0 mm 4 mps 754 mmHg 36%
    18:00 +23°C° 0 mm 4 mps 755 mmHg 43%
    19:00 +23°C° 0 mm 4 mps 755 mmHg 48%
    20:00 +22°C° 0 mm 4 mps 756 mmHg 54%
    21:00 +21°C° 0 mm 5 mps 756 mmHg 59%
    22:00 +21°C° 0 mm 5 mps 756 mmHg 63%
    23:00 +20°C° 0 mm 6 mps 756 mmHg 66%

    28 January, Sunday

    Time Temperature Precipitation Wind Pressure Humidity
    00:00 +20°C° 0 mm 6 mps 756 mmHg 70%
    01:00 +18°C° 0 mm 7 mps 756 mmHg 67%
    02:00 +18°C° 0 mm 8 mps 756 mmHg 65%
    03:00 +18°C° 0 mm 9 mps 756 mmHg 62%
    04:00 +18°C° 0 mm 9 mps 757 mmHg 61%
    05:00 +18°C° 0 mm 9 mps 757 mmHg 59%
    06:00 +17°C° 0 mm 10 mps 758 mmHg 57%
    07:00 +18°C° 0 mm 10 mps 758 mmHg 50%
    08:00 +18°C° 0 mm 10 mps 759 mmHg 44%
    09:00 +19°C° 0 mm 10 mps 759 mmHg 37%
    10:00 +19°C° 0 mm 10 mps 759 mmHg 35%
    11:00 +21°C° 0 mm 10 mps 759 mmHg 33%
    12:00 +21°C° 0 mm 10 mps 759 mmHg 30%
    13:00 +21°C° 0 mm 10 mps 758 mmHg 32%
    14:00 +21°C° 0 mm 10 mps 758 mmHg 33%
    15:00 +21°C° 0 mm 9 mps 757 mmHg 34%
    16:00 +19°C° 0 mm 9 mps 758 mmHg 37%
    17:00 +18°C° 0 mm 8 mps 758 mmHg 39%
    18:00 +17°C° 0 mm 7 mps 758 mmHg 42%
    19:00 +17°C° 0 mm 7 mps 759 mmHg 44%
    20:00 +16°C° 0 mm 7 mps 759 mmHg 46%
    21:00 +16°C° 0 mm 6 mps 759 mmHg 48%
    22:00 +16°C° 0 mm 7 mps 759 mmHg 48%
    23:00 +15°C° 0 mm 7 mps 759 mmHg 49%

    29 January, Monday

    Time Temperature Precipitation Wind Pressure Humidity
    00:00 +15°C° 0 mm 7 mps 759 mmHg 49%
    01:00 +15°C° 0 mm 7 mps 759 mmHg 49%
    02:00 +15°C° 0 mm 7 mps 759 mmHg 49%
    03:00 +15°C° 0 mm 7 mps 759 mmHg 49%
    04:00 +14°C° 0 mm 7 mps 759 mmHg 49%
    05:00 +14°C° 0 mm 7 mps 760 mmHg 48%
    06:00 +14°C° 0 mm 7 mps 760 mmHg 48%
    07:00 +15°C° 0 mm 8 mps 760 mmHg 45%
    08:00 +16°C° 0 mm 8 mps 761 mmHg 43%
    09:00 +17°C° 0 mm 8 mps 761 mmHg 40%
    10:00 +17°C° 0 mm 8 mps 761 mmHg 38%
    11:00 +18°C° 0 mm 8 mps 761 mmHg 36%
    12:00 +20°C° 0 mm 8 mps 760 mmHg 33%
    13:00 +20°C° 0 mm 8 mps 760 mmHg 33%
    14:00 +20°C° 0 mm 8 mps 759 mmHg 32%
    15:00 +20°C° 0 mm 8 mps 759 mmHg 32%
    16:00 +18°C° 0 mm 7 mps 759 mmHg 34%
    17:00 +17°C° 0 mm 6 mps 759 mmHg 36%
    18:00 +16°C° 0 mm 5 mps 760 mmHg 39%
    19:00 +17°C° 0 mm 4 mps 760 mmHg 40%
    20:00 +15°C° 0 mm 4 mps 760 mmHg 42%
    21:00 +15°C° 0 mm 4 mps 761 mmHg 44%
    22:00 +15°C° 0 mm 4 mps 760 mmHg 44%
    23:00 +14°C° 0 mm 4 mps 760 mmHg 44%
    Show more